Location: Wien
(48.2082°N, 16.3738°E)
Time: 02:50:04
(UTC+01:00)

Envisat - Pass Details

Date: 24 October 2019
Orbit: 764 x 766 km, 98.1° (Epoch: 21 November)

Event Time Altitude Azimuth Distance (km) Brightness Sun altitude
Rises 18:41:13 0° 161° (SSE) 3,221 6.1 -9.2°
Reaches altitude 10° 18:43:30 10° 160° (SSE) 2,299 5.3 -9.6°
Maximum altitude 18:48:35 80° 74° (ENE) 784 3.0 -10.4°
Drops below altitude 10° 18:53:41 10° 348° (NNW) 2,315 5.6 -11.3°
Sets 18:56:00 0° 348° (NNW) 3,245 6.3 -11.6°
